SCP
2 2 2 1 1 2 2 2 2 2 2 2 2 2 2 2 2 2 1 1 2 2 3 3 3 2 2 1 1 1 1 1 1 1 1 1 1 1 1 0 0 0 0
2 2 1 1 1 1 1 1 1 2 2 2 2 2 2 2 2 2 1 1 2 2 2 2 3 2 2 2 1 1 1 1 1 1 1 1 1 1 1 1 0 0 0
1 1 1 1 1 1 1 1 1 1 2 2 2 2 2 2 2 2 1 1 2 2 2 2 2 2 2 2 2 2 1 1 1 1 1 1 1 1 1 1 1 0 0
1 1 1 1 1 1 1 1 1 1 1 1 1 1 2 2 2 1 1 1 1 1 1 2 2 2 2 2 2 2 2 2 2 1 1 1 1 1 1 1 1 1 0
1 1 1 1 1 1 1 1 1 1 0 1 1 1 1 2 2 1 1 1 1 1 1 1 1 2 2 2 2 2 2 2 1 1 1 1 1 1 1 1 1 1 0
1 1 1 1 1 0 0 0 0 0 0 0 0 1 1 1 1 1 1 1 1 1 1 1 1 1 1 1 1 2 2 2 1 1 1 1 1 1 1 1 1 1 1
0 0 0 0 0 0 0 0 0 0 0 0 0 0 0 1 1 1 1 1 1 1 1 1 1 1 1 1 1 1 2 2 1 1 1 1 1 1 1 1 1 1 1
0 0 0 0 0 0 0 0 0 0 0 0 0 0 0 0 0 0 0 0 0 1 1 1 1 1 1 1 1 1 1 2 2 2 1 1 1 1 1 1 1 1 1
0 0 0 0 0 0 0 0 0 0 0 0 0 0 0 0 0 0 0 0 0 0 0 1 1 1 1 1 1 1 1 1 2 2 1 1 1 1 1 1 1 1 0
0 0 0 0 0 0 0 0 0 0 0 0 0 0 0 0 0 0 0 0 0 0 0 1 1 1 1 1 1 1 1 1 1 1 1 1 1 1 1 1 1 1 1
0 0 0 0 0 0 0 0 0 0 0 0 0 0 0 0 0 0 0 0 0 0 0 0 1 1 1 1 1 1 1 1 1 1 1 1 1 1 1 1 1 1 1
0 0 0 0 0 0 0 0 0 0 0 0 0 0 0 0 0 0 0 0 0 0 0 0 0 0 1 1 1 1 1 1 1 1 1 1 1 1 1 1 1 1 1
0 0 0 0 0 0 0 0 0 0 0 0 0 0 0 0 0 0 0 0 0 0 0 0 0 0 0 1 1 1 1 0 0 0 0 1 1 1 1 1 1 1 1
0 0 0 0 0 0 0 0 0 0 0 0 0 0 0 0 0 0 0 0 0 0 0 0 0 0 0 0 1 1 1 0 0 0 0 0 0 1 1 1 1 1 1
0 0 0 0 0 0 0 0 0 0 0 0 0 0 0 0 0 0 0 0 0 0 0 0 0 0 0 0 0 1 1 0 0 0 0 0 0 0 0 0 0 0 0
0 0 0 0 0 0 0 0 0 0 0 0 0 0 0 0 0 0 0 0 0 0 0 0 0 0 1 1 0 0 0 0 0 0 0 0 0 0 0 0 0 0 0
0 0 0 0 0 0 0 0 0 0 0 0 0 0 0 0 0 0 0 0 0 0 0 0 0 1 1 1 1 1 0 0 0 0 0 0 0 0 0 0 0 0 0
0 0 0 0 0 0 0 0 0 0 0 0 0 0 0 0 0 0 0 0 0 0 0 0 1 1 1 1 1 1 0 0 0 0 0 0 0 0 0 0 0 0 0
0 0 0 0 0 0 0 0 0 0 0 0 0 0 0 0 0 0 0 0 0 0 0 1 1 1 1 1 1 1 0 0 0 0 0 0 0 0 0 0 0 0 0
0 0 0 0 0 0 0 0 0 0 0 0 0 0 0 0 0 0 0 0 0 0 0 1 1 1 1 1 1 1 1 0 0 0 0 0 0 0 0 0 0 0 0
0 0 0 0 0 0 0 0 0 0 0 0 0 0 0 0 0 0 0 0 0 0 0 0 1 1 1 1 1 1 1 0 0 0 0 0 0 0 0 0 0 0 0
0 0 0 0 0 0 0 0 0 0 0 0 0 0 0 0 0 0 0 0 0 0 0 0 1 1 1 1 1 1 1 0 0 0 0 0 0 0 0 0 0 0 0
0 0 0 0 0 0 0 0 0 0 0 0 0 0 0 0 0 0 0 0 0 0 0 0 0 1 1 1 1 1 1 0 0 0 0 0 0 0 0 0 0 0 0
0 0 0 0 0 0 0 0 0 0 0 0 0 0 0 0 0 0 0 0 0 0 0 0 0 0 1 1 1 1 1 0 0 0 0 0 0 0 0 0 0 0 0
0 0 0 0 0 0 0 0 0 0 0 0 0 0 0 0 0 0 0 0 0 0 0 0 0 0 0 0 0 1 1 0 0 0 0 0 0 0 0 0 0 0 0
0 0 0 0 0 0 0 0 0 0 0 0 0 0 0 0 0 0 0 0 0 0 0 0 0 0 0 0 0 0 1 0 0 0 0 0 0 0 0 0 0 0 0
Wind_Speed
2 2 2 2 3 3 4 4 5 7 8 9 9 10 10 10 9 8 6 14 16 20 22 23 23 22 21 21 20 20 20 20 18 17 17 16 15 15 15 14 13 13 12
1 1 2 3 3 3 3 4 5 6 7 7 9 11 11 10 10 10 7 9 16 18 22 23 23 22 22 22 21 21 20 20 19 19 18 17 16 16 16 15 15 14 13
1 1 1 2 3 3 3 3 4 4 6 8 10 11 10 10 9 10 9 7 8 15 21 22 22 22 22 22 22 21 20 19 19 19 19 18 17 17 16 16 16 15 14
1 1 1 2 3 2 2 3 3 4 5 6 6 8 8 8 10 10 9 8 7 8 14 22 22 21 22 23 23 22 21 20 19 19 20 19 19 18 17 17 17 16 15
1 0 1 2 3 2 3 4 3 3 4 5 6 6 6 7 8 9 10 10 10 9 8 14 21 22 23 24 22 22 21 20 20 20 21 21 20 20 19 18 18 17 17
1 1 1 3 2 2 3 3 4 4 4 4 5 5 5 6 6 8 9 9 9 11 11 11 10 15 23 22 21 21 22 21 21 22 22 22 21 20 19 19 18 18 18
3 2 2 2 2 2 3 4 3 4 3 2 2 3 3 6 7 7 7 7 10 11 11 11 9 8 9 19 21 21 22 22 22 22 22 22 22 20 19 19 19 19 19
5 4 3 3 2 2 3 3 3 2 3 2 1 1 2 3 5 8 7 8 9 7 10 12 10 10 8 6 11 21 22 22 22 22 22 22 21 20 20 20 19 19 19
6 5 5 4 3 2 2 2 2 2 3 2 2 2 2 3 2 3 7 8 8 7 8 8 11 11 11 8 8 15 21 21 22 22 22 21 21 20 20 20 20 20 20
6 6 5 4 3 2 2 2 1 1 2 2 2 2 3 2 2 3 3 4 8 8 8 8 10 10 11 9 10 14 18 20 22 22 21 20 20 19 20 20 21 21 20
6 6 5 3 2 2 2 2 2 2 1 2 2 2 2 2 3 2 3 3 2 5 6 7 7 8 10 10 9 12 17 18 19 19 19 19 19 20 20 21 21 22 21
4 6 6 4 3 3 3 3 3 3 2 2 2 1 1 2 1 2 3 3 3 3 4 5 6 7 8 8 12 15 16 17 17 17 18 18 18 19 19 20 21 21 21
3 5 4 4 4 4 4 4 4 4 4 3 3 2 2 2 2 2 2 2 3 3 2 3 5 6 7 7 8 15 15 16 16 16 16 17 17 17 17 18 19 20 20
4 4 4 4 5 5 5 4 4 5 4 4 5 4 3 3 2 2 2 1 2 2 2 3 2 4 5 6 9 13 9 15 15 15 15 15 15 15 15 16 16 16 16
4 5 4 5 5 5 5 5 4 5 5 5 5 5 4 3 3 2 2 1 1 2 3 3 2 2 3 4 8 7 6 10 13 13 13 13 13 13 14 14 14 15 15
5 5 6 5 6 6 5 5 5 5 5 5 5 5 5 4 3 3 2 2 2 3 3 3 3 2 3 4 6 5 5 9 9 10 10 11 11 12 12 13 13 14 14
6 6 6 6 6 7 6 5 6 6 6 6 6 6 7 5 4 3 3 2 3 2 4 3 1 1 2 5 5 5 5 5 4 7 7 8 9 10 11 11 12 13 13
7 7 7 7 7 7 7 7 8 7 6 7 7 6 7 6 5 4 3 4 3 3 3 4 2 1 2 6 7 7 5 5 4 5 6 6 6 8 9 10 10 11 11
7 7 7 7 8 8 8 8 8 8 8 8 7 7 7 6 6 5 5 4 4 4 3 3 2 2 1 4 6 6 7 5 5 6 7 6 5 6 7 7 8 9 9
7 7 7 8 8 8 8 9 9 9 9 9 8 8 8 7 8 7 6 6 5 4 4 3 3 2 2 4 6 7 5 3 3 4 6 7 8 8 7 7 8 9 9
8 7 7 8 8 7 8 9 9 10 8 9 8 8 8 11 12 9 6 6 6 5 4 4 4 3 3 6 6 5 7 5 3 2 4 4 4 5 5 7 8 10 10
7 7 7 8 8 9 11 14 12 8 8 8 8 8 8 10 13 14 14 13 11 8 7 5 4 5 5 6 5 7 8 7 4 3 4 3 3 5 4 4 7 10 11
7 8 8 8 9 11 15 17 18 11 9 9 9 8 10 10 10 7 10 13 13 14 12 7 7 6 6 6 8 9 9 7 4 6 5 3 3 4 4 5 9 10 12
7 8 9 9 9 11 15 15 17 12 9 10 10 10 10 9 9 8 6 6 7 8 10 8 6 6 5 6 8 8 9 7 6 4 4 4 3 3 4 5 7 9 11
8 8 8 9 9 11 14 14 14 7 7 9 10 10 10 10 13 13 8 7 6 6 8 10 9 8 8 9 8 8 9 10 7 3 2 4 4 3 3 3 5 9 10
8 8 8 8 8 9 12 14 12 5 6 7 7 8 12 12 13 13 8 7 8 6 6 6 6 7 7 8 12 10 11 11 8 5 4 5 5 5 4 2 3 4 5
Wind_Direction
240 256 268 265 258 250 243 235 230 230 232 231 229 229 231 229 227 224 229 232 221 210 206 202 200 199 199 198 198 200 199 199 196 193 193 193 191 189 188 186 184 183 181
228 253 275 280 274 261 251 244 238 233 234 233 233 231 229 231 230 227 224 230 226 214 209 206 203 204 204 203 203 203 204 203 200 197 197 196 196 195 194 192 190 188 187
248 267 281 288 286 281 272 261 251 237 235 236 233 230 227 228 230 229 227 224 225 221 214 210 207 207 208 209 208 207 206 206 203 200 199 199 198 198 197 196 196 194 191
7 347 304 291 290 290 277 266 254 250 246 241 235 231 224 220 225 230 230 229 225 223 220 215 210 210 211 213 213 211 209 207 205 203 202 201 200 201 201 200 199 198 196
21 12 295 287 293 295 283 278 269 253 258 254 242 234 226 220 221 230 230 232 230 223 218 219 216 214 215 217 218 217 212 209 207 207 205 204 203 203 204 203 203 201 200
342 351 304 302 305 304 294 281 276 267 255 256 258 251 233 224 222 223 226 228 229 226 220 220 220 223 221 221 221 221 217 213 210 209 208 207 206 205 205 205 205 204 203
328 317 304 305 311 300 291 285 279 279 275 263 268 275 260 238 233 231 223 222 226 226 222 217 216 217 221 223 223 223 221 218 214 211 210 209 208 207 205 206 206 206 206
323 316 292 276 280 291 313 315 297 285 286 254 223 258 281 269 240 229 220 222 224 221 224 221 216 215 216 213 219 221 222 221 219 215 211 209 209 208 206 207 207 207 208
317 311 300 275 260 248 273 296 308 294 284 284 239 220 233 246 285 257 225 225 221 217 222 222 217 215 214 213 215 220 221 220 221 219 214 210 209 207 207 207 208 208 208
321 318 306 291 269 251 261 279 294 283 290 293 290 256 241 233 241 293 287 236 223 221 219 222 221 214 211 210 213 211 215 216 218 219 216 211 208 206 207 209 210 210 209
330 334 325 318 308 287 277 288 306 301 276 275 278 283 277 259 224 235 283 297 254 227 219 216 218 214 209 207 208 211 210 213 214 215 214 210 208 207 209 211 213 214 212
320 331 336 332 319 309 297 287 280 287 281 279 274 259 259 279 263 236 252 277 270 248 222 216 217 212 207 203 211 210 208 209 209 210 210 208 207 208 210 212 215 217 215
305 310 328 329 321 310 301 294 285 281 276 277 271 258 246 249 260 251 251 266 279 281 252 227 215 209 205 195 205 207 207 205 205 206 205 204 204 206 209 211 215 217 216
272 280 295 306 307 305 306 301 288 277 274 270 274 269 255 253 248 249 254 274 296 304 286 257 229 206 197 187 196 194 200 200 200 200 201 201 202 203 206 209 211 214 214
276 286 293 295 296 297 296 299 289 284 282 270 268 268 262 254 242 237 235 228 233 264 266 262 258 218 186 172 177 174 173 188 191 193 196 198 201 203 205 208 210 210 211
277 285 286 286 287 288 288 288 283 280 279 273 267 267 265 257 251 237 224 223 223 229 253 251 243 229 176 160 151 144 150 157 166 178 186 194 199 203 207 209 210 210 209
269 269 270 275 278 280 281 280 277 278 274 277 277 268 263 258 252 246 228 216 220 218 251 269 267 235 146 145 125 114 112 114 126 155 174 189 197 203 206 209 209 208 206
263 260 260 262 267 272 271 270 274 278 268 267 269 267 265 263 251 243 232 225 218 216 230 259 266 228 160 153 137 126 113 107 102 118 140 161 180 194 200 203 203 202 201
264 262 258 255 258 261 262 261 260 264 263 258 255 255 257 256 253 243 233 229 222 226 220 235 252 247 150 143 129 113 107 105 102 105 105 112 132 158 175 182 184 185 185
264 262 257 253 252 253 254 257 257 258 260 259 254 249 247 244 243 237 232 226 217 217 220 228 231 236 175 151 139 136 131 117 106 94 88 86 94 98 117 139 153 156 157
273 265 262 259 255 255 256 253 249 257 256 258 258 252 249 250 246 238 228 216 207 206 209 220 219 210 188 167 161 150 143 131 99 107 102 78 78 75 73 94 114 129 134
275 272 266 262 261 267 267 261 256 252 249 249 253 252 256 263 257 248 238 223 206 199 201 208 214 210 204 179 159 156 150 149 145 147 111 78 67 74 53 63 102 115 120
278 276 270 264 263 263 262 261 261 255 244 243 242 244 256 257 251 239 238 232 222 214 202 194 208 211 204 185 168 169 168 156 141 147 119 92 63 68 47 65 96 109 114
277 275 274 270 268 272 268 262 261 257 244 240 238 235 236 244 247 234 229 229 222 216 209 202 203 211 211 195 182 172 157 126 103 107 103 110 93 72 52 52 76 103 113
283 278 274 273 273 277 275 270 265 252 243 242 240 237 232 234 235 226 218 218 220 225 218 206 198 198 198 192 174 151 152 152 145 139 107 116 122 98 66 47 61 89 106
281 282 281 277 273 276 279 278 271 246 244 247 245 240 235 232 228 216 208 205 212 214 198 194 195 197 198 196 185 178 169 166 151 148 156 125 133 130 107 65 59 75 91